Theta_e
330 330 331 330 331 330 330 330 332 333 333 335 335 334 333 333 334 337 339 344 348 348 348 348 345 345 343 343 346 347 348 347 345 344 344 343 343 341 340 339 339 339 340
330 329 327 329 327 330 330 331 331 331 331 332 332 332 333 333 336 340 338 340 347 348 346 345 344 344 343 342 345 345 347 347 346 344 344 344 342 341 340 340 339 337 339
330 328 326 325 328 329 327 329 328 328 328 329 330 331 332 334 338 338 335 334 336 345 345 344 344 344 343 342 343 343 347 346 347 346 344 343 342 341 341 340 340 338 338
332 328 327 326 327 327 327 328 327 325 326 327 327 329 331 334 338 333 333 332 331 332 338 343 343 343 343 342 342 343 345 345 346 346 344 343 341 340 340 341 341 340 338
334 332 330 329 327 328 327 328 327 327 325 325 327 328 330 332 334 333 331 331 330 331 330 336 341 342 341 342 341 343 343 345 344 344 344 343 342 340 341 341 340 340 338
336 334 332 331 330 327 328 328 326 327 327 327 329 328 329 330 328 328 328 331 331 331 330 330 330 334 340 341 341 341 343 342 343 343 343 343 342 342 341 341 339 339 338
337 334 335 332 333 329 329 330 327 326 325 325 324 322 323 326 327 325 327 327 328 330 330 330 328 328 331 340 341 343 340 341 342 342 343 342 342 340 341 340 340 338 337
339 336 335 335 334 333 330 329 327 323 324 326 323 320 318 318 319 322 324 326 326 327 329 329 329 329 328 327 331 340 340 338 341 342 344 342 342 339 341 340 337 337 338
342 340 336 336 335 335 333 330 329 328 323 328 326 325 317 312 312 317 320 322 323 324 326 327 329 329 328 329 331 335 341 341 340 341 342 343 343 341 340 340 337 338 338
342 341 339 338 337 337 333 332 330 326 329 327 327 327 319 317 312 311 315 319 320 323 323 324 326 328 329 327 332 334 335 339 341 343 343 344 343 342 341 338 338 338 338
342 341 340 339 338 337 334 333 330 331 330 327 323 320 318 317 315 312 310 313 318 320 322 323 323 324 327 326 326 331 334 334 336 339 341 343 343 342 341 339 340 339 339
340 341 340 339 338 336 334 334 334 331 326 324 322 320 319 317 315 314 311 311 311 315 319 322 321 322 324 326 329 332 332 330 330 331 334 338 340 340 341 340 340 340 340
336 338 339 338 337 336 334 334 333 328 327 324 323 321 319 317 317 316 314 311 311 314 317 319 321 321 323 326 328 333 333 328 326 326 327 331 334 337 338 339 339 340 339
338 339 339 339 337 335 334 335 332 330 327 324 323 321 320 319 318 317 316 313 309 310 313 315 319 321 322 325 328 332 330 326 325 323 323 326 329 332 333 333 335 336 335
338 339 339 338 336 335 334 332 331 332 327 324 322 321 318 318 319 319 318 316 312 307 308 314 316 321 324 325 327 329 327 326 325 321 321 322 324 326 327 328 329 330 330
338 338 337 336 335 334 334 330 327 326 325 323 322 321 319 318 319 319 317 315 313 311 308 313 316 319 325 328 332 327 328 327 322 320 320 320 322 323 323 324 325 326 327
338 338 337 335 334 334 332 328 326 326 325 322 322 322 320 319 319 318 316 315 315 315 311 315 315 321 323 327 326 326 327 325 323 320 322 321 320 320 322 321 321 323 324
338 337 335 335 334 334 331 328 326 327 324 322 323 322 321 322 317 316 316 314 314 315 315 313 313 317 322 324 323 324 325 326 325 321 320 320 319 318 319 318 317 318 318
337 337 335 334 333 332 329 327 327 326 324 323 323 322 321 320 317 317 316 314 314 317 314 317 317 321 322 326 324 323 323 323 323 321 317 318 319 318 317 317 315 315 313
336 335 335 334 333 331 330 327 326 325 324 324 324 323 323 321 320 318 318 315 316 315 315 313 317 318 321 323 323 319 318 320 319 321 319 318 318 318 316 315 315 315 311
335 335 333 332 331 329 329 327 328 324 323 323 323 324 324 322 321 319 319 316 316 315 314 313 317 318 318 319 319 319 317 317 318 319 319 319 320 319 317 316 319 316 311
333 333 331 329 326 328 310 313 322 324 322 322 321 321 319 317 315 312 313 315 317 315 314 313 317 318 318 319 320 318 317 316 313 319 317 315 320 318 318 320 315 311 309
329 327 325 325 323 322 305 307 313 325 322 321 320 318 318 320 318 319 310 311 310 310 313 316 317 319 319 320 319 318 317 316 314 316 318 312 317 316 316 315 309 308 307
325 323 322 321 319 314 302 303 309 322 320 320 318 318 318 316 316 317 316 316 316 317 317 318 318 317 319 322 321 320 317 315 316 315 317 311 315 314 316 314 306 306 305
322 320 319 317 316 312 301 301 314 321 320 319 319 318 319 317 304 302 315 313 315 314 305 304 304 304 302 306 313 318 316 315 312 312 314 313 313 313 315 313 313 307 305
320 320 316 316 311 313 299 300 313 321 318 318 320 318 308 313 299 300 315 315 315 315 315 314 312 306 308 309 308 321 318 315 311 311 315 312 313 314 311 315 313 311 310
Wind_Speed
6 5 5 4 4 4 4 4 4 4 5 5 4 5 6 6 5 4 3 12 13 15 16 13 13 13 12 11 10 12 12 11 11 13 16 16 20 19 18 17 15 12 16
5 5 4 5 5 5 5 5 6 6 5 4 5 5 7 5 6 6 4 5 11 13 15 13 14 12 13 13 12 12 10 10 12 14 15 19 19 16 14 17 17 15 17
7 6 4 5 6 5 6 4 5 4 4 3 6 5 5 7 6 5 4 4 5 10 12 11 13 12 14 14 13 13 11 9 11 14 15 18 16 14 16 16 18 18 16
8 6 5 5 5 4 5 5 4 4 4 4 4 5 5 4 6 5 4 4 4 3 7 12 12 13 13 12 13 14 12 9 9 11 14 17 14 15 13 15 18 19 18
9 8 7 6 6 5 5 6 3 4 3 4 5 4 4 5 4 3 5 5 6 5 4 8 11 11 10 12 13 13 14 9 8 11 14 16 16 16 14 13 15 16 15
10 9 6 7 7 5 5 4 5 3 3 4 3 3 4 3 3 4 5 4 6 6 5 5 4 4 10 10 11 13 14 11 8 10 13 14 16 16 13 12 13 11 12
11 11 7 7 7 8 9 8 4 5 3 3 3 1 2 4 4 4 4 4 5 5 5 5 4 3 4 9 9 9 9 10 10 10 13 13 13 17 14 13 9 8 9
11 10 9 9 10 6 7 7 5 3 2 4 3 2 0 3 2 1 3 4 4 3 4 5 5 6 4 3 5 8 10 9 10 11 11 11 13 13 13 11 8 9 11
10 10 11 8 8 7 7 6 7 7 4 3 3 4 2 4 1 2 2 2 2 2 3 3 5 5 5 4 5 7 9 10 10 10 12 12 12 10 13 12 10 11 11
9 10 9 9 8 6 6 6 5 4 5 4 2 1 2 4 4 3 3 3 2 3 4 3 4 4 5 4 7 9 9 9 11 9 10 10 12 11 13 12 10 12 14
7 9 9 9 8 7 6 7 7 6 3 4 4 3 1 1 3 3 3 4 3 2 3 3 3 3 4 4 4 5 9 8 10 8 8 9 10 10 18 19 14 11 16
6 8 9 8 7 6 6 6 6 6 6 4 3 4 4 4 3 3 2 3 3 3 2 2 3 3 3 4 5 8 8 7 9 8 7 6 9 9 14 17 15 16 19
4 8 9 9 6 6 6 6 6 6 6 5 6 4 3 3 3 3 3 2 2 2 2 2 2 3 3 3 4 7 8 8 8 7 7 8 7 11 13 14 14 17 19
7 9 8 8 8 7 6 6 4 5 6 5 6 4 3 4 3 3 4 4 0 2 2 4 1 3 3 3 4 7 5 8 8 7 8 9 10 11 12 12 12 14 16
6 9 9 8 8 8 8 8 5 6 6 5 5 5 3 2 3 3 3 3 5 2 2 2 1 1 3 3 4 3 3 6 7 5 7 9 11 11 9 13 13 13 13
9 10 8 8 9 8 8 8 5 5 6 4 4 6 3 2 3 3 3 3 3 4 2 2 1 1 1 2 4 4 4 7 7 7 8 11 14 15 11 14 14 14 12
10 12 11 10 10 9 8 7 6 6 6 5 4 5 6 5 4 3 3 2 2 2 3 1 1 2 2 4 4 5 5 4 5 7 9 12 13 17 14 16 15 15 11
11 12 10 11 11 10 9 8 7 6 7 6 6 6 5 4 4 4 3 4 3 3 3 3 1 3 3 4 4 6 5 5 4 6 8 11 12 17 13 15 14 14 14
11 11 12 12 11 11 9 7 7 7 7 6 6 6 5 6 5 3 3 4 3 2 1 2 2 1 2 3 5 5 6 6 5 9 9 9 12 17 15 14 14 13 13
12 12 12 11 11 10 9 8 7 7 6 6 6 5 5 6 6 6 5 5 4 4 2 4 3 2 2 3 3 4 5 4 4 5 8 8 5 11 14 12 12 12 11
11 12 12 9 9 9 7 8 8 6 6 5 5 5 5 6 7 7 4 5 5 4 3 3 5 2 2 5 6 3 4 4 4 2 5 3 5 5 4 7 8 11 11
12 12 11 10 8 5 11 12 9 6 6 6 6 4 3 4 4 8 8 8 7 6 4 4 4 6 6 5 6 7 6 5 3 2 3 3 2 4 3 3 8 10 11
11 9 8 9 7 6 11 12 12 7 7 6 6 5 4 2 4 4 2 7 7 8 5 6 9 9 6 7 8 8 4 4 3 3 5 2 1 3 2 3 8 10 9
12 9 8 8 8 4 9 11 10 7 6 6 6 6 5 4 3 5 5 5 4 4 5 3 6 6 5 8 7 7 7 6 5 3 2 3 1 2 2 2 7 8 8
8 7 7 8 8 5 7 10 9 6 6 6 5 5 5 5 4 8 6 6 5 3 5 4 6 9 12 13 10 9 7 9 4 2 1 3 2 3 2 2 3 7 7
7 7 6 6 8 8 5 9 7 5 6 4 4 4 5 5 7 9 6 7 6 3 5 5 6 7 7 11 14 9 10 8 4 2 3 4 3 3 2 3 4 4 4
Wind_Direction
189 181 193 183 189 175 189 194 193 198 211 209 212 221 239 245 243 240 246 272 259 233 226 239 236 233 238 239 216 211 207 206 199 194 189 185 186 181 179 190 179 185 187
181 183 185 194 193 194 190 187 196 200 213 186 225 222 241 238 241 234 237 258 267 224 224 236 239 235 234 234 220 219 209 202 196 195 190 191 192 189 197 200 189 190 184
175 180 185 188 208 200 179 181 193 189 190 188 232 221 234 239 246 249 221 245 258 244 231 226 233 231 233 231 224 222 213 196 196 197 194 196 198 192 195 210 197 195 186
176 167 185 204 197 180 181 189 177 196 199 187 225 227 235 240 230 236 228 219 229 252 256 233 236 237 234 234 228 227 221 199 188 194 197 202 192 195 205 202 199 198 202
184 184 192 204 179 178 186 192 190 178 169 210 225 235 235 237 214 209 241 232 237 233 229 239 243 242 236 232 231 231 229 199 187 192 195 202 203 201 207 205 202 199 190
186 192 189 196 181 161 186 176 188 172 165 201 210 234 241 235 204 224 238 226 231 226 220 225 245 252 232 224 225 232 232 203 187 197 191 202 205 209 209 219 205 203 199
189 195 195 189 185 186 190 194 173 172 200 162 112 13 298 263 253 220 239 230 227 218 219 218 221 233 248 224 215 225 236 213 204 208 192 198 200 204 196 204 176 193 211
184 187 188 192 192 183 164 172 169 141 148 173 150 101 231 320 311 318 219 231 245 219 231 220 212 220 209 229 205 217 223 225 217 210 203 195 204 221 198 180 164 238 222
189 184 187 188 184 183 181 171 172 167 151 183 218 146 137 223 297 319 346 269 271 223 244 234 233 215 196 205 210 217 216 216 226 217 214 203 208 223 185 164 194 239 232
187 183 184 186 178 181 162 169 170 166 141 164 162 119 74 144 167 327 326 308 326 243 245 228 233 206 195 185 197 208 215 214 221 221 219 215 200 211 174 152 210 227 182
174 179 179 177 172 182 168 161 162 173 155 152 149 145 110 71 84 124 261 315 340 291 267 246 240 208 180 174 185 220 223 216 217 208 213 219 197 212 178 177 189 175 147
162 171 172 177 171 163 158 168 164 166 169 152 147 152 158 168 177 154 184 250 249 299 293 278 216 213 202 192 202 208 227 208 205 196 202 194 187 201 180 175 188 156 157
170 180 172 171 159 161 158 148 160 161 169 163 164 177 158 173 139 135 132 186 231 295 306 268 222 198 194 199 197 201 221 198 189 195 182 180 172 163 171 166 164 160 156
174 170 174 168 151 145 150 149 151 165 150 162 167 164 179 190 156 157 162 145 309 305 303 257 297 207 199 197 198 219 210 183 174 185 160 169 162 148 144 158 147 147 156
162 164 165 164 145 146 160 153 157 157 156 161 173 170 160 174 176 173 160 147 156 205 275 289 325 298 201 188 204 168 185 179 142 150 165 157 133 160 153 130 130 133 136
158 157 156 153 136 151 150 145 142 142 147 151 152 163 164 162 165 151 151 159 162 162 206 225 255 25 157 109 143 144 113 96 102 132 142 142 143 130 152 133 133 130 138
165 161 158 148 147 148 145 138 145 149 150 154 156 169 186 160 170 156 148 158 171 148 158 294 42 57 74 108 88 65 69 76 85 118 145 143 148 131 152 138 137 138 146
166 155 151 149 151 152 150 146 154 159 158 167 174 177 185 161 179 180 176 178 168 181 149 150 71 53 94 90 101 96 79 64 68 113 126 134 149 135 151 143 135 134 144
152 147 147 153 154 152 153 154 158 162 169 175 176 175 187 172 187 177 174 180 189 165 152 118 124 113 89 112 93 76 76 64 63 96 96 119 165 146 141 142 138 145 141
148 151 153 153 151 154 159 156 156 162 170 182 172 182 192 189 192 185 190 185 181 158 133 110 120 98 108 95 99 115 85 56 65 63 68 91 121 128 130 134 139 143 140
145 145 143 143 149 150 161 159 157 166 173 174 174 190 204 201 196 187 171 186 175 156 131 120 143 115 113 147 145 108 105 103 58 70 83 70 114 101 102 122 142 143 148
147 146 144 147 142 153 155 146 147 155 157 159 161 164 161 154 197 201 193 182 177 156 153 136 167 167 161 127 134 134 134 130 110 25 90 63 113 114 120 127 140 142 156
130 137 138 131 139 135 155 150 143 146 148 150 155 158 172 158 164 152 118 182 190 176 158 153 160 179 159 161 141 138 138 120 109 146 104 79 55 116 111 113 143 151 162
138 137 132 132 128 126 141 149 144 134 139 145 160 168 159 160 164 149 153 126 119 131 140 168 170 164 148 141 153 141 127 103 94 64 91 109 101 87 110 121 154 153 166
121 128 132 134 127 123 121 141 127 131 135 150 155 158 150 155 163 157 139 122 111 87 45 70 115 129 130 131 135 127 144 145 137 123 71 105 130 100 129 166 189 196 209
119 126 121 122 127 128 127 152 132 130 134 141 132 113 136 145 158 160 143 139 131 121 123 103 89 85 129 144 155 167 153 150 119 98 214 108 126 139 162 205 191 197 213